period_start,C,m1,H,J0,J1,J2,J3,J4,J5,JA,JB,JC,JD,JJ,JK,JN,#
2017-11-16 00:02:49,0.05,1.40,0.00,17.71,21.07,24.45,14.31,48.30,1022.64,2053.49,2906.06,2805.10,3120.07,600.02,610.60,45.67,0000 0000 0000 0000 000000
2017-11-16 00:07:50,0.01,1.40,0.00,17.69,21.06,24.40,14.31,48.33,1022.58,2053.40,2905.19,2805.00,3120.00,599.91,610.34,45.73,0000 0000 0000 0000 000000
2017-11-16 00:12:51,0.02,1.40,0.00,17.71,21.04,24.46,14.29,48.23,1022.62,2053.48,2904.51,2805.00,3119.82,600.06,610.51,45.78,0000 0000 0000 0000 000000
2017-11-16 00:17:53,0.02,1.40,0.00,17.68,21.04,24.47,14.23,48.32,1022.52,2053.44,2903.75,2804.98,3119.10,599.75,610.21,45.83,0000 0000 0000 0000 000000
2017-11-16 00:22:54,0.04,1.40,0.00,17.64,21.04,24.44,14.30,48.30,1022.56,2053.48,2902.87,2804.48,3118.98,600.14,610.71,45.88,0000 0000 0000 0000 000000
2017-11-16 00:27:55,0.06,1.41,0.00,17.60,21.03,24.41,14.23,48.34,1022.50,2053.75,2902.06,2804.10,3118.59,599.92,610.58,45.93,0000 0000 0000 0000 000000
2017-11-16 00:32:56,0.01,1.41,0.00,17.63,21.02,24.45,14.31,48.38,1022.50,2053.76,2901.32,2804.01,3118.04,599.94,610.51,45.98,0000 0000 0000 0000 000000
2017-11-16 00:37:58,0.04,1.41,0.00,17.63,21.02,24.42,14.26,48.44,1022.48,2053.92,2900.55,2804.00,3117.98,599.85,610.40,46.03,0000 0000 0000 0000 000000
2017-11-16 00:42:59,0.02,1.41,0.00,17.63,21.02,24.38,14.36,48.28,1022.48,2053.95,2899.76,2803.98,3117.47,599.97,610.43,46.08,0000 0000 0000 0000 000000
2017-11-16 00:48:00,0.02,1.41,0.00,17.63,21.00,24.38,14.35,48.32,1022.48,2053.96,2898.95,2803.88,3117.03,599.84,610.37,46.13,0000 0000 0000 0000 000000
2017-11-16 00:53:02,0.03,1.41,0.00,17.61,20.99,24.41,14.36,48.31,1022.48,2053.97,2898.10,2803.41,3116.98,600.04,610.60,46.18,0000 0000 0000 0000 000000
2017-11-16 00:58:03,0.04,1.42,0.00,17.62,20.99,24.45,14.31,48.36,1022.48,2053.97,2897.20,2803.04,3116.36,599.82,610.56,46.23,0000 0000 0000 0000 000000
2017-11-16 01:03:05,0.03,1.42,0.00,17.62,20.99,24.40,14.32,48.36,1022.48,2053.96,2895.95,2802.89,3115.91,600.03,610.59,46.28,0000 0000 0000 0000 000000
2017-11-16 01:08:06,0.04,1.42,0.00,17.61,20.97,24.39,14.33,48.30,1022.49,2053.97,2894.89,2802.43,3115.19,599.85,610.44,46.33,0000 0000 0000 0000 000000
2017-11-16 01:13:07,0.02,1.42,0.00,17.60,20.97,24.40,14.35,48.36,1022.48,2053.97,2893.89,2802.03,3114.97,600.06,610.58,46.38,0000 0000 0000 0000 000000
2017-11-16 01:18:08,0.03,1.42,0.00,17.61,20.97,24.40,14.37,48.38,1022.48,2053.97,2892.80,2801.97,3114.26,600.09,610.73,46.43,0000 0000 0000 0000 000000
2017-11-16 01:23:10,0.05,1.43,0.00,17.60,20.97,24.32,14.36,48.29,1022.48,2053.99,2891.71,2801.42,3113.85,600.08,610.69,46.48,0000 0000 0000 0000 000000
2017-11-16 01:28:11,0.03,1.43,0.00,17.63,20.95,24.36,14.32,48.34,1022.48,2053.98,2890.49,2801.00,3113.06,600.10,610.67,46.53,0000 0000 0000 0000 000000
2017-11-16 01:33:12,0.03,1.43,0.00,17.58,20.94,24.31,14.36,48.36,1022.48,2053.98,2889.44,2800.84,3112.81,600.13,610.76,46.59,0000 0000 0000 0000 000000
2017-11-16 01:38:14,0.05,1.43,0.00,17.62,20.94,24.36,14.22,48.32,1022.48,2053.99,2888.42,2800.13,3112.05,599.79,610.41,46.64,0000 0000 0000 0000 000000
2017-11-16 01:43:15,0.03,1.43,0.00,17.58,20.94,24.34,14.28,48.35,1022.47,2053.99,2887.22,2799.99,3111.56,599.89,610.59,46.69,0000 0000 0000 0000 000000
2017-11-16 01:48:17,0.02,1.44,0.00,17.62,20.94,24.33,14.34,48.38,1022.45,2053.99,2886.29,2799.97,3111.03,599.93,610.56,46.74,0000 0000 0000 0000 000000
2017-11-16 01:53:18,0.03,1.44,0.00,17.59,20.92,24.28,14.36,48.47,1022.26,2053.99,2885.36,2799.58,3110.97,600.02,610.46,46.79,0000 0000 0000 0000 000000
2017-11-16 01:58:19,0.04,1.44,0.00,17.59,20.92,24.24,14.29,48.55,1022.07,2053.99,2884.49,2799.09,3110.35,600.01,610.44,46.84,0000 0000 0000 0000 000000
2017-11-16 02:03:20,0.02,1.44,0.00,17.56,20.92,24.31,14.19,48.48,1022.02,2053.99,2883.51,2799.00,3110.00,599.66,610.07,46.89,0000 0000 0000 0000 000000
2017-11-16 02:08:22,0.02,1.44,0.00,17.58,20.92,24.30,14.31,48.52,1021.99,2053.99,2882.52,2798.98,3109.72,599.96,610.27,46.94,0000 0000 0000 0000 000000
2017-11-16 02:13:23,0.04,1.44,0.00,17.57,20.91,24.23,14.34,48.49,1021.99,2053.99,2881.45,2798.57,3109.04,599.92,610.14,46.99,0000 0000 0000 0000 000000
2017-11-16 02:18:24,0.02,1.45,0.00,17.57,20.90,24.21,14.29,48.53,1021.97,2053.99,2880.60,2798.10,3108.96,599.80,610.17,47.04,0000 0000 0000 0000 000000
2017-11-16 02:23:26,0.03,1.45,0.00,17.58,20.89,24.31,14.34,48.61,1021.80,2053.99,2879.48,2798.00,3108.18,599.86,610.06,47.09,0000 0000 0000 0000 000000
2017-11-16 02:28:27,0.02,1.45,0.00,17.53,20.89,24.33,14.31,48.68,1021.63,2053.99,2878.65,2797.87,3107.84,599.96,610.18,47.14,0000 0000 0000 0000 000000
2017-11-16 02:33:28,0.05,1.45,0.00,17.57,20.89,24.27,14.29,48.71,1021.57,2053.99,2877.73,2797.21,3107.12,600.09,610.17,47.19,0000 0000 0000 0000 000000
2017-11-16 02:38:29,0.01,1.45,0.00,17.54,20.89,24.23,14.28,48.70,1021.52,2054.00,2876.93,2797.01,3106.98,600.01,610.16,47.24,0000 0000 0000 0000 000000
2017-11-16 02:43:31,0.03,1.45,0.00,17.54,20.88,24.26,14.24,48.72,1021.51,2054.00,2875.97,2796.99,3106.39,599.84,609.99,47.29,0000 0000 0000 0000 000000
2017-11-16 02:48:32,0.04,1.46,0.00,17.55,20.87,24.22,14.32,48.69,1021.51,2054.00,2874.99,2796.47,3105.99,600.08,610.21,47.34,0000 0000 0000 0000 000000
2017-11-16 02:53:33,0.04,1.46,0.00,17.54,20.87,24.29,14.26,48.77,1021.51,2054.01,2874.05,2796.03,3105.41,599.71,609.88,47.39,0000 0000 0000 0000 000000
2017-11-16 02:58:35,0.02,1.46,0.00,17.52,20.87,24.26,14.33,48.67,1021.50,2054.00,2873.09,2795.99,3104.99,600.00,610.18,47.44,0000 0000 0000 0000 000000
2017-11-16 03:03:36,0.08,1.46,0.00,17.54,20.87,24.22,14.35,48.71,1021.50,2054.02,2871.68,2795.23,3104.10,599.96,610.05,47.49,0000 0000 0000 0000 000000
2017-11-16 03:08:37,0.04,1.47,0.00,17.52,20.85,24.25,14.29,48.73,1021.48,2054.02,2870.46,2794.96,3103.19,599.79,610.05,47.55,0000 0000 0000 0000 000000
2017-11-16 03:13:38,0.04,1.47,0.00,17.53,20.85,24.22,14.33,48.69,1021.50,2054.03,2869.47,2794.28,3102.98,599.96,610.19,47.60,0000 0000 0000 0000 000000
2017-11-16 03:18:39,0.03,1.47,0.00,17.53,20.84,24.19,14.33,48.65,1021.50,2054.04,2868.65,2794.01,3102.32,599.99,610.17,47.65,0000 0000 0000 0000 000000
2017-11-16 03:23:40,0.02,1.47,0.00,17.47,20.84,24.24,14.39,48.72,1021.50,2054.05,2867.76,2794.00,3102.00,600.14,610.39,47.70,0000 0000 0000 0000 000000
2017-11-16 03:28:41,0.03,1.47,0.00,17.50,20.84,24.23,14.22,48.68,1021.50,2054.05,2866.76,2793.81,3101.60,599.78,609.99,47.75,0000 0000 0000 0000 000000
2017-11-16 03:33:43,0.04,1.48,0.00,17.48,20.84,24.18,14.27,48.66,1021.50,2054.03,2865.81,2793.08,3101.01,599.85,610.27,47.80,0000 0000 0000 0000 000000
2017-11-16 03:38:45,0.01,1.48,0.00,17.50,20.83,24.24,14.26,48.80,1021.49,2054.04,2864.99,2793.11,3100.98,599.73,609.95,47.85,0000 0000 0000 0000 000000
2017-11-16 03:43:45,0.04,1.48,0.00,17.51,20.82,24.12,14.35,48.63,1021.42,2054.07,2864.07,2792.99,3100.23,600.13,610.33,47.90,0000 0000 0000 0000 000000
2017-11-16 03:48:47,0.02,1.48,0.00,17.46,20.82,24.18,14.28,48.68,1021.31,2054.10,2863.17,2792.95,3099.99,599.87,610.03,47.95,0000 0000 0000 0000 000000
2017-11-16 03:53:48,0.05,1.48,0.00,17.48,20.82,24.19,14.29,48.79,1021.11,2054.13,2862.31,2792.45,3099.49,599.60,609.60,48.00,0000 0000 0000 0000 000000
2017-11-16 03:58:49,0.03,1.48,0.00,17.51,20.82,24.19,14.36,48.60,1021.05,2054.28,2861.55,2792.02,3099.01,600.41,610.36,48.05,0000 0000 0000 0000 000000
2017-11-16 04:03:51,0.03,1.48,0.00,17.48,20.82,24.22,14.33,48.73,1021.03,2054.30,2860.80,2792.00,3098.89,600.07,609.97,48.10,0000 0000 0000 0000 000000
2017-11-16 04:08:52,0.02,1.49,0.00,17.49,20.82,24.25,14.25,48.70,1021.02,2054.34,2859.94,2791.99,3098.15,599.90,609.84,48.15,0000 0000 0000 0000 000000
2017-11-16 04:13:53,0.04,1.49,0.00,17.52,20.81,24.19,14.31,48.62,1021.02,2054.40,2858.94,2791.48,3097.94,600.00,609.95,48.20,0000 0000 0000 0000 000000
2017-11-16 04:18:55,0.04,1.49,0.00,17.49,20.80,24.23,14.28,48.79,1021.01,2054.44,2857.99,2791.04,3097.22,599.82,609.78,48.25,0000 0000 0000 0000 000000
2017-11-16 04:23:56,0.05,1.49,0.00,17.52,20.80,24.23,14.31,48.79,1021.01,2054.58,2857.09,2791.00,3096.99,599.98,609.82,48.30,0000 0000 0000 0000 000000
2017-11-16 04:28:57,0.05,1.50,0.00,17.47,20.79,24.19,14.25,48.67,1021.01,2054.75,2856.15,2790.72,3096.37,599.83,609.82,48.35,0000 0000 0000 0000 000000
2017-11-16 04:33:58,0.04,1.50,0.00,17.50,20.79,24.17,14.29,48.77,1021.01,2054.79,2855.21,2790.06,3095.98,599.73,609.99,48.40,0000 0000 0000 0000 000000
2017-11-16 04:38:59,0.05,1.50,0.00,17.49,20.79,24.19,14.37,48.80,1021.00,2054.86,2854.07,2789.99,3095.29,600.08,610.03,48.46,0000 0000 0000 0000 000000
2017-11-16 04:44:00,0.07,1.50,0.00,17.48,20.79,24.12,14.27,48.73,1020.89,2054.96,2852.78,2789.48,3094.67,600.04,609.89,48.51,0000 0000 0000 0000 000000
2017-11-16 04:49:01,0.03,1.51,0.00,17.49,20.79,24.18,14.24,48.78,1020.65,2054.94,2851.50,2788.99,3093.95,599.87,609.63,48.56,0000 0000 0000 0000 000000
2017-11-16 04:54:03,0.04,1.51,0.00,17.52,20.79,24.10,14.31,48.74,1020.80,2054.96,2850.61,2788.79,3093.18,599.87,609.68,48.61,0000 0000 0000 0000 000000
2017-11-16 04:59:04,0.04,1.51,0.00,17.46,20.79,24.11,14.30,48.63,1020.87,2054.95,2849.62,2788.12,3092.94,599.79,609.73,48.66,0000 0000 0000 0000 000000
2017-11-16 05:04:06,0.03,1.51,0.00,17.46,20.79,24.18,14.30,48.67,1020.85,2054.97,2848.66,2788.00,3092.16,600.19,610.02,48.71,0000 0000 0000 0000 000000
2017-11-16 05:09:06,0.02,1.51,0.00,17.44,20.79,24.13,14.44,48.80,1020.75,2054.97,2847.57,2787.97,3091.93,600.54,610.54,48.76,0000 0000 0000 0000 000000
2017-11-16 05:14:08,0.06,1.52,0.00,17.45,20.79,24.16,14.32,48.77,1020.62,2054.96,2846.35,2787.34,3091.14,599.99,609.77,48.81,0000 0000 0000 0000 000000
2017-11-16 05:19:09,0.02,1.52,0.00,17.49,20.79,24.16,14.31,48.79,1020.54,2054.96,2845.31,2787.03,3090.97,599.91,609.54,48.86,0000 0000 0000 0000 000000
2017-11-16 05:24:10,0.03,1.52,0.00,17.42,20.79,24.14,14.31,48.80,1020.54,2054.96,2844.30,2786.99,3090.16,600.20,610.02,48.91,0000 0000 0000 0000 000000
2017-11-16 05:29:11,0.03,1.52,0.00,17.43,20.78,24.13,14.32,48.76,1020.53,2054.98,2843.14,2786.77,3089.85,600.08,609.76,48.96,0000 0000 0000 0000 000000
2017-11-16 05:34:13,0.05,1.52,0.00,17.44,20.78,24.13,14.36,48.78,1020.52,2054.98,2842.07,2786.11,3089.07,600.40,610.14,49.01,0000 0000 0000 0000 000000
2017-11-16 05:39:14,0.02,1.53,0.00,17.45,20.77,24.14,14.38,48.83,1020.52,2054.98,2840.93,2786.01,3088.97,600.29,609.98,49.06,0000 0000 0000 0000 000000
2017-11-16 05:44:15,0.04,1.53,0.00,17.44,20.77,24.12,14.21,48.81,1020.52,2054.97,2839.74,2785.99,3088.26,599.93,609.60,49.11,0000 0000 0000 0000 000000
2017-11-16 05:49:17,0.04,1.53,0.00,17.46,20.77,24.09,14.27,48.76,1020.47,2054.98,2838.66,2785.66,3087.87,599.90,609.44,49.16,0000 0000 0000 0000 000000
2017-11-16 05:54:18,0.05,1.53,0.00,17.41,20.77,24.15,14.32,48.75,1020.48,2054.99,2837.47,2785.08,3087.09,600.00,609.67,49.21,0000 0000 0000 0000 000000
2017-11-16 05:59:20,0.03,1.53,0.00,17.45,20.77,24.07,14.22,48.92,1020.45,2054.98,2836.17,2784.98,3086.59,599.79,609.58,49.26,0000 0000 0000 0000 000000
2017-11-16 06:04:21,0.06,1.54,0.00,17.46,20.77,24.10,14.29,48.87,1020.40,2054.97,2834.78,2784.31,3085.89,600.34,610.07,49.32,0000 0000 0000 0000 000000
2017-11-16 06:09:22,0.04,1.54,0.00,17.42,20.77,24.10,14.26,48.92,1020.33,2054.98,2833.51,2783.99,3085.02,599.89,609.48,49.37,0000 0000 0000 0000 000000
2017-11-16 06:14:24,0.09,1.54,0.00,17.44,20.77,24.11,14.24,48.92,1020.16,2054.99,2831.60,2783.16,3084.04,599.59,609.19,49.42,0000 0000 0000 0000 000000
2017-11-16 06:19:25,0.07,1.55,0.00,17.46,20.77,24.08,14.30,48.88,1020.09,2054.99,2830.12,2782.29,3083.10,599.81,609.29,49.47,0000 0000 0000 0000 000000
2017-11-16 06:24:26,0.04,1.55,0.00,17.42,20.77,24.08,14.33,48.84,1020.08,2054.99,2828.82,2782.02,3082.27,600.37,609.96,49.52,0000 0000 0000 0000 000000
2017-11-16 06:29:28,0.02,1.55,0.00,17.46,20.77,24.11,14.38,48.94,1020.05,2054.99,2827.47,2781.98,3081.92,600.74,610.02,49.57,0000 0000 0000 0000 000000
2017-11-16 06:34:29,0.06,1.55,0.00,17.45,20.77,24.06,14.27,48.88,1020.04,2054.99,2826.04,2781.49,3081.08,599.90,609.29,49.62,0000 0000 0000 0000 000000
2017-11-16 06:39:30,0.05,1.56,0.00,17.44,20.77,24.06,14.25,49.13,1020.03,2054.99,2824.52,2781.01,3080.23,599.73,609.34,49.67,0000 0000 0000 0000 000000
2017-11-16 06:44:31,0.08,1.56,0.00,17.48,20.77,24.10,14.28,48.89,1020.02,2054.99,2822.78,2780.45,3079.37,599.95,609.28,49.72,0000 0000 0000 0000 000000
2017-11-16 06:49:33,0.04,1.56,0.00,17.46,20.77,24.10,14.30,48.95,1020.03,2054.99,2821.16,2780.00,3078.42,599.62,609.01,49.77,0000 0000 0000 0000 000000
2017-11-16 06:54:34,0.05,1.57,0.00,17.47,20.77,24.08,14.26,48.95,1020.03,2054.99,2819.67,2779.81,3077.73,600.17,609.56,49.82,0000 0000 0000 0000 000000
2017-11-16 06:59:35,0.05,1.57,0.00,17.48,20.77,24.07,14.31,48.96,1020.03,2054.99,2818.32,2779.13,3077.01,600.37,609.80,49.87,0000 0000 0000 0000 000000
2017-11-16 07:04:37,0.05,1.57,0.00,17.47,20.77,24.07,14.30,48.99,1020.03,2054.99,2816.71,2778.98,3076.18,600.46,609.89,49.92,0000 0000 0000 0000 000000
2017-11-16 07:09:38,0.07,1.58,0.00,17.49,20.77,24.08,14.29,49.00,1020.02,2054.99,2815.29,2778.45,3075.30,599.89,609.17,49.97,0000 0000 0000 0000 000000
2017-11-16 07:14:39,0.05,1.58,0.00,17.48,20.77,24.09,14.25,49.00,1019.97,2054.99,2813.74,2777.99,3074.18,599.82,609.17,50.02,0000 0000 0000 0000 000000
2017-11-16 07:19:41,0.06,1.58,0.00,17.45,20.77,24.06,14.32,49.04,1019.86,2054.99,2812.28,2777.55,3073.45,600.25,609.62,50.07,0000 0000 0000 0000 000000
2017-11-16 07:24:42,0.04,1.58,0.00,17.49,20.77,24.10,14.24,48.91,1019.81,2054.99,2810.80,2777.02,3072.78,600.07,609.26,50.12,0000 0000 0000 0000 000000
2017-11-16 07:29:43,0.04,1.59,0.00,17.43,20.77,24.11,14.30,49.05,1019.81,2055.00,2809.35,2776.98,3071.96,599.80,609.19,50.17,0000 0000 0000 0000 000000
2017-11-16 07:34:44,0.07,1.59,0.00,17.42,20.77,24.12,14.27,48.99,1019.74,2055.00,2807.79,2776.47,3071.09,599.97,609.27,50.22,0000 0000 0000 0000 000000
2017-11-16 07:39:46,0.04,1.59,0.00,17.47,20.77,24.12,14.27,49.13,1019.72,2055.00,2806.38,2776.04,3070.49,599.59,608.79,50.27,0000 0000 0000 0000 000000
2017-11-16 07:44:47,0.03,1.60,0.00,17.45,20.77,24.09,14.29,49.13,1019.66,2055.00,2804.80,2776.00,3069.83,600.28,609.35,50.33,0000 0000 0000 0000 000000
2017-11-16 07:49:48,0.06,1.60,0.00,17.49,20.77,24.06,14.33,49.06,1019.77,2055.00,2803.33,2775.62,3068.94,600.24,609.48,50.38,0000 0000 0000 0000 000000
2017-11-16 07:54:49,0.05,1.60,0.00,17.48,20.77,24.02,14.29,49.15,1019.67,2055.00,2801.78,2775.01,3068.06,600.13,609.31,50.43,0000 0000 0000 0000 000000
2017-11-16 07:59:51,0.04,1.60,0.00,17.41,20.77,24.05,14.23,49.02,1019.58,2055.00,2800.41,2774.92,3067.20,600.02,609.47,50.48,0000 0000 0000 0000 000000
2017-11-16 08:04:52,0.05,1.61,0.00,17.46,20.77,24.10,14.27,49.12,1019.58,2055.00,2799.05,2774.36,3066.61,599.74,608.93,50.53,0000 0000 0000 0000 000000
2017-11-16 08:09:54,0.04,1.61,0.00,17.46,20.77,24.07,14.27,48.92,1019.65,2055.00,2797.67,2774.01,3065.90,599.87,609.13,50.58,0000 0000 0000 0000 000000
2017-11-16 08:14:55,0.04,1.61,0.00,17.47,20.77,24.06,14.31,49.07,1019.60,2055.00,2796.05,2773.96,3065.03,599.83,609.06,50.63,0000 0000 0000 0000 000000
2017-11-16 08:19:57,0.06,1.61,0.00,17.49,20.78,24.09,14.28,49.01,1019.59,2055.00,2794.71,2773.69,3064.26,600.05,609.27,50.68,0000 0000 0000 0000 000000
2017-11-16 08:24:58,0.04,1.62,0.00,17.48,20.78,24.03,14.28,49.15,1019.57,2055.00,2793.59,2773.12,3063.80,599.47,608.58,50.73,0000 0000 0000 0000 000000
2017-11-16 08:29:59,0.04,1.62,0.00,17.49,20.79,24.01,14.28,49.13,1019.57,2055.00,2792.20,2773.00,3062.88,600.08,609.21,50.78,0000 0000 0000 0000 000000
2017-11-16 08:35:00,0.04,1.62,0.00,17.50,20.79,24.05,14.30,49.12,1019.56,2055.00,2790.89,2772.87,3062.05,599.93,609.06,50.83,0000 0000 0000 0000 000000
2017-11-16 08:40:01,0.07,1.62,0.00,17.50,20.79,24.03,14.25,49.14,1019.55,2055.00,2789.53,2772.12,3061.33,599.75,608.80,50.88,0000 0000 0000 0000 000000
2017-11-16 08:45:03,0.04,1.63,0.00,17.54,20.79,24.08,14.29,49.17,1019.55,2055.00,2788.05,2771.98,3060.45,600.37,609.19,50.93,0000 0000 0000 0000 000000
2017-11-16 08:50:04,0.07,1.63,0.00,17.53,20.79,24.05,14.34,49.20,1019.55,2055.00,2786.60,2771.36,3059.66,600.22,609.23,50.98,0000 0000 0000 0000 000000
2017-11-16 08:55:06,0.03,1.63,0.00,17.50,20.79,24.03,14.29,49.27,1019.56,2055.02,2785.36,2771.00,3058.93,599.73,608.84,51.03,0000 0000 0000 0000 000000
2017-11-16 09:00:07,0.04,1.64,0.00,17.52,20.79,24.00,14.22,49.29,1019.56,2055.02,2784.12,2770.95,3058.07,599.79,608.90,51.08,0000 0000 0000 0000 000000
2017-11-16 09:05:08,0.07,1.64,0.00,17.50,20.79,23.99,14.25,49.24,1019.56,2055.00,2782.83,2770.25,3057.29,599.82,608.98,51.13,0000 0000 0000 0000 000000
2017-11-16 09:10:09,0.05,1.64,0.00,17.50,20.79,24.04,14.31,49.27,1019.57,2055.00,2781.48,2769.86,3056.30,600.18,609.30,51.18,0000 0000 0000 0000 000000
2017-11-16 09:15:10,0.06,1.64,0.00,17.54,20.79,24.03,14.25,49.30,1019.55,2055.01,2780.25,2769.07,3055.45,599.76,608.69,51.23,0000 0000 0000 0000 000000
2017-11-16 09:20:12,0.04,1.65,0.00,17.51,20.80,23.99,14.19,49.25,1019.55,2055.00,2779.16,2768.98,3054.60,599.64,608.72,51.29,0000 0000 0000 0000 000000
2017-11-16 09:25:13,0.06,1.65,0.00,17.49,20.80,24.03,14.29,49.26,1019.55,2055.00,2777.94,2768.45,3053.82,600.05,609.24,51.34,0000 0000 0000 0000 000000
2017-11-16 09:30:14,0.08,1.65,0.00,17.56,20.81,24.02,14.33,49.25,1019.55,2055.00,2776.37,2767.72,3052.51,600.14,609.23,51.39,0000 0000 0000 0000 000000
2017-11-16 09:35:15,0.04,1.66,0.00,17.51,20.82,24.04,14.26,49.23,1019.57,2055.00,2775.11,2767.07,3051.85,599.81,608.95,51.44,0000 0000 0000 0000 000000
2017-11-16 09:40:16,0.05,1.66,0.00,17.54,20.82,24.04,14.31,49.30,1019.56,2055.00,2773.80,2766.81,3050.94,599.82,608.79,51.49,0000 0000 0000 0000 000000
2017-11-16 09:45:18,0.06,1.66,0.00,17.56,20.82,24.06,14.28,49.25,1019.56,2055.00,2772.53,2766.10,3050.07,599.96,608.88,51.54,0000 0000 0000 0000 000000
2017-11-16 09:50:19,0.04,1.66,0.00,17.51,20.82,24.06,14.30,49.37,1019.58,2055.00,2771.48,2765.85,3049.30,599.65,608.73,51.59,0000 0000 0000 0000 000000
2017-11-16 09:55:20,0.10,1.67,0.00,17.56,20.82,24.06,14.27,49.23,1019.57,2055.00,2770.08,2764.63,3047.75,600.30,609.16,51.64,0000 0000 0000 0000 000000
2017-11-16 10:00:21,0.06,1.67,0.00,17.57,20.82,24.04,14.28,49.27,1019.61,2054.99,2768.86,2763.97,3046.45,600.10,609.07,51.69,0000 0000 0000 0000 000000
2017-11-16 10:05:22,0.07,1.68,0.00,17.56,20.83,24.06,14.24,49.24,1019.68,2054.99,2767.59,2763.13,3045.25,599.64,608.68,51.74,0000 0000 0000 0000 000000
2017-11-16 10:10:24,0.06,1.68,0.00,17.59,20.84,23.99,14.28,49.29,1019.61,2054.99,2766.43,2762.49,3044.23,600.56,609.42,51.79,0000 0000 0000 0000 000000
2017-11-16 10:15:25,0.04,1.68,0.00,17.55,20.84,24.01,14.26,49.19,1019.62,2054.99,2765.41,2762.02,3043.57,599.57,608.65,51.84,0000 0000 0000 0000 000000
2017-11-16 10:20:26,0.02,1.68,0.00,17.59,20.84,24.09,14.30,49.25,1019.77,2054.99,2764.52,2761.97,3043.00,600.08,609.04,51.89,0000 0000 0000 0000 000000
2017-11-16 10:25:27,0.04,1.68,0.00,17.58,20.84,24.01,14.22,49.23,1019.80,2054.99,2763.63,2761.72,3042.65,599.54,608.56,51.94,0000 0000 0000 0000 000000
2017-11-16 10:30:29,0.04,1.69,0.00,17.52,20.84,24.02,14.27,49.17,1019.71,2054.99,2762.61,2761.07,3042.02,600.47,609.52,51.99,0000 0000 0000 0000 000000
2017-11-16 10:35:30,0.03,1.69,0.00,17.59,20.85,24.02,14.32,49.24,1019.64,2054.99,2761.76,2761.00,3041.31,600.12,609.14,52.04,0000 0000 0000 0000 000000
2017-11-16 10:40:31,0.01,1.69,0.00,17.59,20.85,24.02,14.22,49.38,1019.63,2054.99,2760.98,2760.93,3040.99,599.65,608.56,52.09,0000 0000 0000 0000 000000
2017-11-16 10:45:33,0.05,1.69,0.00,17.58,20.87,24.04,14.23,49.27,1019.70,2054.98,2760.10,2760.22,3040.33,599.73,608.67,52.14,0000 0000 0000 0000 000000
2017-11-16 10:50:34,0.02,1.69,0.00,17.62,20.87,24.04,14.29,49.27,1019.78,2054.98,2759.36,2760.06,3040.02,600.27,609.21,52.19,0000 0000 0000 0000 000000
2017-11-16 10:55:35,0.01,1.70,0.00,17.60,20.87,24.03,14.32,49.27,1019.77,2054.98,2758.48,2760.00,3039.96,599.97,608.82,52.24,0000 0000 0000 0000 000000
2017-11-16 11:00:36,0.02,1.70,0.00,17.62,20.87,24.05,14.31,49.17,1019.71,2054.99,2757.80,2759.97,3039.15,600.39,609.39,52.30,0000 0000 0000 0000 000000
2017-11-16 11:05:38,0.05,1.70,0.00,17.63,20.87,24.08,14.29,49.36,1019.60,2054.97,2756.84,2759.40,3038.64,600.23,609.05,52.35,0000 0000 0000 0000 000000
2017-11-16 11:10:39,0.02,1.70,0.00,17.60,20.87,24.08,14.28,49.38,1019.59,2054.96,2755.90,2758.98,3037.97,600.05,608.93,52.40,0000 0000 0000 0000 000000
2017-11-16 11:15:40,0.05,1.70,0.00,17.62,20.87,24.12,14.36,49.38,1019.70,2054.95,2754.99,2758.54,3037.17,599.61,608.53,52.45,0000 0000 0000 0000 000000
2017-11-16 11:20:41,0.03,1.71,0.00,17.61,20.88,24.15,14.31,49.37,1019.68,2054.96,2754.06,2758.06,3036.88,599.80,608.71,52.50,0000 0000 0000 0000 000000
2017-11-16 11:25:43,0.06,1.71,0.00,17.58,20.89,24.10,14.25,49.24,1019.70,2054.96,2753.23,2757.37,3035.94,600.14,609.15,52.55,0000 0000 0000 0000 000000
2017-11-16 11:30:44,0.06,1.71,0.00,17.62,20.89,24.13,14.37,49.15,1019.79,2054.94,2752.53,2756.65,3034.86,600.22,609.23,52.60,0000 0000 0000 0000 000000
2017-11-16 11:35:45,0.03,1.71,0.00,17.59,20.89,24.02,14.32,49.21,1019.63,2054.93,2751.88,2756.03,3034.07,600.16,609.09,52.65,0000 0000 0000 0000 000000
2017-11-16 11:40:46,0.01,1.71,0.00,17.61,20.89,24.12,14.32,49.32,1019.57,2054.95,2751.03,2756.01,3033.91,600.19,609.12,52.70,0000 0000 0000 0000 000000
2017-11-16 11:45:48,0.04,1.72,0.00,17.61,20.89,24.09,14.29,49.17,1019.61,2054.95,2750.12,2755.86,3033.09,600.19,609.01,52.75,0000 0000 0000 0000 000000
2017-11-16 11:50:49,0.04,1.72,0.00,17.61,20.89,24.09,14.26,49.22,1019.69,2054.93,2749.14,2755.14,3032.90,600.39,609.33,52.80,0000 0000 0000 0000 000000
2017-11-16 11:55:51,0.04,1.72,0.00,17.64,20.89,24.11,14.32,49.38,1019.76,2054.88,2748.29,2754.79,3032.09,600.26,609.12,52.85,0000 0000 0000 0000 000000
2017-11-16 12:00:52,0.04,1.72,0.00,17.62,20.90,24.08,14.32,49.32,1019.85,2054.77,2747.25,2754.06,3031.18,600.11,609.03,52.90,0000 0000 0000 0000 000000
2017-11-16 12:05:53,0.02,1.72,0.00,17.60,20.90,24.15,14.33,49.45,1019.76,2054.69,2746.43,2753.93,3030.62,600.07,609.09,52.95,0000 0000 0000 0000 000000
2017-11-16 12:10:55,0.02,1.73,0.00,17.64,20.91,24.08,14.30,49.38,1019.75,2054.63,2745.97,2753.41,3030.02,600.23,609.22,53.00,0000 0000 0000 0000 000000
2017-11-16 12:15:56,0.01,1.73,0.00,17.63,20.91,24.11,14.31,49.45,1019.63,2054.37,2745.46,2753.00,3029.58,600.10,609.04,53.05,0000 0000 0000 0000 000000
2017-11-16 12:20:57,0.01,1.73,0.00,17.65,20.92,24.14,14.29,49.48,1019.56,2054.36,2744.95,2752.97,3029.03,600.21,608.88,53.10,0000 0000 0000 0000 000000
2017-11-16 12:25:58,0.04,1.73,0.00,17.64,20.92,24.13,14.25,49.38,1019.69,2054.40,2744.09,2752.46,3028.84,600.01,608.74,53.15,0000 0000 0000 0000 000000
2017-11-16 12:30:59,0.03,1.73,0.00,17.60,20.92,24.24,14.32,49.48,1019.89,2054.29,2743.22,2752.07,3028.14,599.58,608.61,53.20,0000 0000 0000 0000 000000
2017-11-16 12:36:01,0.01,1.73,0.00,17.62,20.92,24.15,14.33,49.47,1019.71,2054.19,2742.52,2752.00,3027.98,600.57,609.47,53.25,0000 0000 0000 0000 000000
2017-11-16 12:41:02,0.04,1.73,0.00,17.59,20.92,24.15,14.27,49.48,1019.67,2054.14,2741.53,2751.79,3027.21,599.71,608.65,53.31,0000 0000 0000 0000 000000
2017-11-16 12:46:03,0.02,1.74,0.00,17.58,20.92,24.16,14.26,49.53,1019.63,2054.11,2740.86,2751.21,3027.00,599.90,608.69,53.36,0000 0000 0000 0000 000000
2017-11-16 12:51:05,0.03,1.74,0.00,17.62,20.92,24.22,14.28,49.47,1019.64,2054.14,2740.06,2751.02,3026.75,600.25,609.13,53.41,0000 0000 0000 0000 000000
2017-11-16 12:56:06,0.02,1.74,0.00,17.61,20.92,24.22,14.30,49.52,1019.64,2054.16,2739.41,2750.97,3026.02,600.37,609.28,53.46,0000 0000 0000 0000 000000